OE-11179 Weather Reports


Display with metric or nautical units.
time (UTC)temp
F
wind
direction
speed
MPH
gust
MPH
rain 1hr
in
rain 24hr
in
rain mn
in
humidity
%
barometer
mb
20260903081146 67 81 2.0 5.0 0.00 0.00 0.00 61
20260903080533 66 68 3.0 4.0 0.00 0.00 0.00 63
20260903075533 64 40 1.0 4.0 0.00 0.00 0.00 67
20260903074146 63 83 2.0 5.0 0.00 0.00 0.00 67
20260903073532 63 83 1.0 4.0 0.00 0.00 0.00 66
20260903072532 62 78 2.0 5.0 0.00 0.00 0.00 71
20260903071146 60 77 2.0 6.0 0.00 0.00 0.00 78
20260903070533 58 80 2.0 4.0 0.00 0.00 0.00 77
20260903065533 57 100 1.0 3.0 0.00 0.00 0.00 82
20260903064145 57 352 2.0 5.0 0.00 0.00 0.00 81
20260903063532 56 352 1.0 4.0 0.00 0.00 0.00 84
20260903062533 56 264 1.0 4.0 0.00 0.00 0.00 86
20260903061146 56 188 3.0 5.0 0.00 0.00 0.00 88
20260903060533 55 206 2.0 4.0 0.00 0.00 0.00 90
20260903055533 55 173 2.0 4.0 0.00 0.00 0.00 88
20260903054145 55 217 1.0 4.0 0.00 0.00 0.00 92
20260903053533 55 213 1.0 3.0 0.00 0.00 0.00 88
20260903052533 54 224 2.0 3.0 0.00 0.00 0.00 90
20260903051146 54 235 1.0 4.0 0.00 0.00 0.00 89
20260903050532 54 213 1.0 4.0 0.00 0.00 0.00 89
20260903045533 54 270 1.0 3.0 0.00 0.00 0.00 89
20260903044145 54 298 1.0 3.0 0.00 0.00 0.00 92
20260903043532 55 299 1.0 3.0 0.00 0.00 0.00 89
20260903042533 55 355 0.0 3.0 0.00 0.00 0.00 90
20260903041145 55 270 1.0 4.0 0.00 0.00 0.00 92
20260903040533 55 162 1.0 4.0 0.00 0.00 0.00 90
20260903035533 54 217 1.0 2.0 0.00 0.00 0.00 89
20260903034532 54 221 1.0 1.0 0.00 0.00 0.00 88
20260903033532 55 316 0.0 1.0 0.00 0.00 0.00 89
20260903032533 54 360 0.0 2.0 0.00 0.00 0.00 89
20260903031146 55 288 1.0 2.0 0.00 0.00 0.00 87
20260903030533 55 232 0.0 1.0 0.00 0.00 0.00 88
20260903025533 55 235 1.0 2.0 0.00 0.00 0.00 88
20260903024533 55 260 1.0 2.0 0.00 0.00 0.00 88
20260903023533 55 273 1.0 2.0 0.00 0.00 0.00 89
20260903022533 55 277 1.0 2.0 0.00 0.00 0.00 90
20260903021145 56 193 0.0 2.0 0.00 0.00 0.00 88
20260903020533 56 254 1.0 2.0 0.00 0.00 0.00 88
20260903015533 56 289 1.0 3.0 0.00 0.00 0.00 88
20260903014145 56 229 0.0 2.0 0.00 0.00 0.00 90
20260903013531 56 277 2.0 4.0 0.00 0.00 0.00 88
20260903012532 56 174 1.0 5.0 0.00 0.00 0.00 88
20260903011146 56 31 1.0 4.0 0.00 0.00 0.00 88
20260903010533 56 301 1.0 3.0 0.00 0.00 0.00 90
20260903005533 56 242 1.0 4.0 0.00 0.00 0.00 89
20260903004146 56 229 1.0 3.0 0.00 0.00 0.00 89
20260903003533 56 95 0.0 4.0 0.00 0.00 0.00 88
20260903002533 56 242 2.0 5.0 0.00 0.00 0.00 91
20260903001545 56 319 1.0 2.0 0.00 0.00 0.00 90
20260903000532 56 171 0.0 2.0 0.00 0.00 0.00 89
20260902235532 56 20 0.0 3.0 0.00 0.00 0.00 88
20260902234146 56 360 0.0 5.0 0.00 0.00 0.00 88
20260902233532 56 209 1.0 6.0 0.00 0.00 0.00 90
20260902232532 56 188 1.0 4.0 0.00 0.00 0.00 87
20260902231533 56 226 1.0 3.0 0.00 0.00 0.00 87
20260902230532 56 238 1.0 4.0 0.00 0.00 0.00 87
20260902225533 56 259 1.0 2.0 0.00 0.00 0.00 86
20260902224146 56 245 1.0 3.0 0.00 0.00 0.00 87
20260902223533 56 203 1.0 2.0 0.00 0.00 0.00 86
20260902222533 57 301 1.0 3.0 0.00 0.00 0.00 86
20260902221146 57 150 1.0 4.0 0.00 0.00 0.00 84
20260902220532 58 189 3.0 6.0 0.00 0.00 0.00 83
20260902215533 57 237 2.0 5.0 0.00 0.00 0.00 84
20260902214146 57 188 2.0 4.0 0.00 0.00 0.00 83
20260902213532 58 203 1.0 4.0 0.00 0.00 0.00 82
20260902211146 58 143 1.0 3.0 0.00 0.00 0.00 84
20260902210533 58 195 2.0 4.0 0.00 0.00 0.00 81
20260902205533 58 266 2.0 3.0 0.00 0.00 0.00 82
20260902204147 58 213 1.0 4.0 0.00 0.00 0.00 83
20260902203532 58 204 2.0 5.0 0.00 0.00 0.00 82
20260902202533 58 229 1.0 3.0 0.00 0.00 0.00 81
20260902201146 58 226 1.0 2.0 0.00 0.00 0.00 82
20260902200533 57 193 2.0 6.0 0.00 0.00 0.00 83
20260902195533 58 222 1.0 3.0 0.00 0.00 0.00 81
20260902194146 59 257 1.0 5.0 0.00 0.00 0.00 80
20260902193533 59 199 2.0 4.0 0.00 0.00 0.00 80
20260902192532 59 239 2.0 5.0 0.00 0.00 0.00 82
20260902191146 59 210 1.0 3.0 0.00 0.00 0.00 79
20260902190532 60 229 1.0 2.0 0.00 0.00 0.00 75
20260902185533 60 249 1.0 2.0 0.00 0.00 0.00 74
20260902184146 60 247 1.0 3.0 0.00 0.00 0.00 72
20260902183533 60 217 1.0 3.0 0.00 0.00 0.00 72
20260902182533 60 241 1.0 2.0 0.00 0.00 0.00 72
20260902181146 61 262 1.0 3.0 0.00 0.00 0.00 71
20260902180533 61 241 1.0 3.0 0.00 0.00 0.00 70
20260902175533 60 265 2.0 3.0 0.00 0.00 0.00 72
20260902174146 61 228 1.0 3.0 0.00 0.00 0.00 70
20260902173532 61 221 2.0 3.0 0.00 0.00 0.00 69
20260902172533 63 278 2.0 3.0 0.00 0.00 0.00 66
20260902171146 63 294 1.0 2.0 0.00 0.00 0.00 66
20260902170533 64 261 1.0 2.0 0.00 0.00 0.00 62
20260902165533 65 249 1.0 3.0 0.00 0.00 0.00 60
20260902164146 67 136 1.0 5.0 0.00 0.00 0.00 55
20260902163533 69 333 4.0 9.0 0.00 0.00 0.00 49
20260902162533 69 314 4.0 7.0 0.00 0.00 0.00 47
20260902161146 69 315 6.0 11.0 0.00 0.00 0.00 47
20260902160532 70 309 6.0 13.0 0.00 0.00 0.00 43
20260902155533 68 310 5.0 8.0 0.00 0.00 0.00 52
20260902154146 70 320 6.0 11.0 0.00 0.00 0.00 42
20260902153533 71 320 8.0 14.0 0.00 0.00 0.00 42
20260902152532 71 332 6.0 14.0 0.00 0.00 0.00 44
20260902151146 71 323 7.0 12.0 0.00 0.00 0.00 42
20260902150533 71 342 5.0 13.0 0.00 0.00 0.00 45
20260902145533 72 8 4.0 11.0 0.00 0.00 0.00 42
20260902144146 72 6 3.0 12.0 0.00 0.00 0.00 46
20260902143532 74 24 4.0 12.0 0.00 0.00 0.00 31
20260902142533 73 43 4.0 12.0 0.00 0.00 0.00 40
20260902141146 74 6 5.0 12.0 0.00 0.00 0.00 35
20260902140533 73 352 5.0 12.0 0.00 0.00 0.00 45
20260902135533 75 34 4.0 11.0 0.00 0.00 0.00 37
20260902134145 75 31 4.0 10.0 0.00 0.00 0.00 37
20260902133533 75 17 4.0 12.0 0.00 0.00 0.00 40
20260902132533 73 338 5.0 10.0 0.00 0.00 0.00 42
20260902131146 74 10 2.0 6.0 0.00 0.00 0.00 43
20260902130533 74 16 4.0 12.0 0.00 0.00 0.00 38
20260902125533 74 342 6.0 12.0 0.00 0.00 0.00 44
20260902124145 75 4 3.0 10.0 0.00 0.00 0.00 45
20260902123533 75 14 4.0 9.0 0.00 0.00 0.00 45
20260902122533 74 358 6.0 13.0 0.00 0.00 0.00 46
20260902121146 74 341 6.0 13.0 0.00 0.00 0.00 46
20260902120532 73 335 6.0 12.0 0.00 0.00 0.00 49
20260902115532 74 346 7.0 14.0 0.00 0.00 0.00 47
20260902114146 74 347 6.0 13.0 0.00 0.00 0.00 49
20260902113533 73 353 6.0 13.0 0.00 0.00 0.00 50
20260902112533 73 350 6.0 12.0 0.00 0.00 0.00 48
20260902111146 73 6 6.0 14.0 0.00 0.00 0.00 48
20260902110533 73 353 5.0 13.0 0.00 0.00 0.00 48
20260902105533 73 7 6.0 13.0 0.00 0.00 0.00 48
20260902104146 72 13 4.0 11.0 0.00 0.00 0.00 50
20260902103533 72 6 6.0 13.0 0.00 0.00 0.00 51
20260902102532 71 360 5.0 11.0 0.00 0.00 0.00 54
20260902101146 71 347 6.0 11.0 0.00 0.00 0.00 52
20260902100533 70 345 7.0 13.0 0.00 0.00 0.00 53
20260902095533 71 350 5.0 11.0 0.00 0.00 0.00 55
20260902094146 69 19 5.0 11.0 0.00 0.00 0.00 53
20260902093533 69 30 6.0 11.0 0.00 0.00 0.00 54
20260902092532 69 32 6.0 11.0 0.00 0.00 0.00 54
20260902091145 69 35 4.0 10.0 0.00 0.00 0.00 57
20260902090533 67 60 3.0 7.0 0.00 0.00 0.00 61
20260902084145 66 76 2.0 5.0 0.00 0.00 0.00 61
20260902083533 64 57 2.0 5.0 0.00 0.00 0.00 70
20260902082533 64 79 3.0 6.0 0.00 0.00 0.00 66